Regional Weather Roundup
Issued by NWS Little Rock, AR

Home | Current Version | Previous Version | Graphics & Text | Print | Product List | Glossary On
Versions: 1 2 3 4 5 6 7 8 9 10 11 12 13 14 15 16 17 18 19 20 21 22 23 24 25 26 27 28 29 30 31 32 33 34 35 36 37 38 39 40 41 42 43 44 45 46 47 48 49 50
000
ASUS44 KLZK 280805
RWRLZK

WEATHER ROUNDUP FOR ARKANSAS
NATIONAL WEATHER SERVICE LITTLE ROCK AR
300 AM CDT WED JUN 28 2017

NOTE: "FAIR" INDICATES FEW OR NO CLOUDS BELOW 12,000 FEET WITH NO
SIGNIFICANT WEATHER AND/OR OBSTRUCTIONS TO VISIBILITY.

ARZ001-003-010-029-280900-
NORTHWEST ARKANSAS

CITY           SKY/WX    TMP DP  RH WIND       PRES   REMARKS
FAYETTEVILLE   CLEAR     70  62  76 S8        29.99F
FORT SMITH     CLEAR     70  65  84 CALM      29.97F
HARRISON       CLEAR     65  62  90 SE6       30.01F
BENTONVILLE    CLOUDY    68  59  73 S5        30.00R
ROGERS         CLEAR     68  62  81 SE7       30.01S
SILOAM SPGS    CLOUDY    70  61  73 S9        29.98S
HIGHFILL       PTCLDY    68  62  81 S7        29.99F
$$

ARZ004-005-016-280900-
NORTH CENTRAL ARKANSAS

CITY           SKY/WX    TMP DP  RH WIND       PRES   REMARKS
BATESVILLE     CLEAR     64  61  88 CALM      30.03F
FLIPPIN        CLEAR     64  57  77 CALM      29.98F
MTN HOME       CLEAR     66  62  87 S6        30.00F
$$

ARZ040-041-280900-
WEST CENTRAL ARKANSAS

CITY           SKY/WX    TMP DP  RH WIND       PRES   REMARKS
MENA           PTCLDY    64  63  94 CALM      30.01F
MOUNT IDA      CLEAR     66  64  93 CALM      29.99F
$$

ARZ009-017-025-026-028-280900-
NORTHEAST ARKANSAS

CITY           SKY/WX    TMP DP  RH WIND       PRES   REMARKS
JONESBORO      CLEAR     66  65  96 E3        30.03F
WALNUT RIDGE   CLEAR     68  63  83 SE7       30.03S
BLYTHEVILLE    CLEAR     69  65  86 CALM      30.04F
$$

ARZ022-023-033-042-044-280900-
CENTRAL ARKANSAS

CITY           SKY/WX    TMP DP  RH WIND       PRES   REMARKS
LITTLE ROCK    CLEAR     67  67 100 CALM      30.02S
N LITTLE ROCK    N/A     71  65  83 CALM      30.01F
JACKSONVILLE   CLEAR     66  66  99 CALM      30.01F
CONWAY           N/A     66  64  94 CALM      30.00S
SEARCY         CLEAR     66  66 100 CALM      30.04F
HOT SPRINGS    CLEAR     70  64  81 E5        30.01F
RUSSELLVILLE   CLEAR     70  65  84 CALM      29.99F
$$

ARZ036-280900-
EAST ARKANSAS

CITY           SKY/WX    TMP DP  RH WIND       PRES   REMARKS
WEST MEMPHIS   CLEAR     69  65  86 SE5       30.02F
$$

ARZ050-053-066-070-073-280900-
SOUTHWEST ARKANSAS

CITY           SKY/WX    TMP DP  RH WIND       PRES   REMARKS
ARKADELPHIA    FAIR      66  65  96 CALM      30.01F
CAMDEN         PTCLDY    66  63  88 CALM      30.00F
TEXARKANA      PTCLDY    72  66  81 SE8       29.99F
EL DORADO      CLEAR     67  66  97 CALM      30.01S
DE QUEEN       CLEAR     68  67  96 NE3       29.97S
$$

ARZ056-057-069-280900-
SOUTHEAST ARKANSAS

CITY           SKY/WX    TMP DP  RH WIND       PRES   REMARKS
PINE BLUFF     CLEAR     67  66  97 CALM      30.01F
STUTTGART      MOCLDY    72  57  60 E3        30.03S
MONTICELLO     PTCLDY    68  65  90 CALM      30.01F

$$





USA.gov is the U.S. government's official web portal to all federal, state and local government web resources and services.